Location: Wellington
(32.5559°S, 148.9451°E)
Time: 09:36:25
(UTC+00:00)

Daily predictions for brighter satellites

Satellite Brightness Start Highest point End
(mag) Time Altitude Azimuth Time Altitude Azimuth Time Altitude Azimuth
Terra 3.5 12:12:01 10° S 12:15:27 29° SW 12:15:27 29° SW
COSMOS 2455 3.5 12:16:01 10° SSW 12:20:30 52° SSW 12:20:30 52° SSW
Cosmos 1980 Rocket 4.2 12:21:44 10° SW 12:25:07 20° W 12:25:07 20° W
Okean O Rocket 3.9 12:23:39 10° SSW 12:25:52 21° SW 12:25:52 21° SW
USA 215 4.2 12:40:44 10° SSE 12:46:54 44° SW 12:49:34 30° W
Cosmos 2360 Rocket 3.7 12:53:51 10° SSW 12:57:01 33° S 12:57:01 33° S
Cosmos 2322 Rocket 3.7 13:00:50 10° SSW 13:03:47 32° SSW 13:03:47 32° SSW
Cosmos 2333 Rocket 3.9 13:10:15 10° SSW 13:12:55 28° SW 13:12:55 28° SW
SL-16 R/B 4.1 13:13:32 10° SW 13:15:53 23° SW 13:15:53 23° SW
Cosmos 2219 Rocket 3.9 13:27:03 10° SSW 13:29:45 29° S 13:29:45 29° S
ATLAS 2AS CENTAUR R/B 3.5 13:34:58 48° SSE 13:34:58 48° SSE 13:39:57 10° SSE
USA 59 Rocket 2.5 13:42:19 10° SW 13:48:20 36° WSW 13:48:20 36° WSW
Cosmos 2297 Rocket 3.9 14:17:45 29° SSE 14:17:45 29° SSE 14:20:29 10° SSE
COSMOS 2428 4.3 14:15:25 10° SSW 14:18:26 31° S 14:18:26 31° S
Cosmos 2237 Rocket 3.9 14:28:40 10° S 14:32:45 28° SE 14:32:45 28° SE
ADEOS II 4.3 14:58:05 16° E 14:59:08 17° ESE 15:02:29 10° SSE
Cosmos 2227 Rocket 3.3 15:05:15 41° SSE 15:05:15 41° SSE 15:08:52 10° SSE
CZ-2C R/B 4.0 15:04:02 10° SSE 15:07:22 33° SE 15:07:22 33° SE
CZ-4C R/B 4.3 15:28:53 29° NE 15:30:46 32° ENE 15:37:52 10° SE
Cosmos 2263 Rocket 2.8 15:32:45 54° SSE 15:32:45 54° SSE 15:37:10 10° SSE
CZ-2D R/B 2.9 15:33:24 49° SE 15:33:24 49° SE 15:37:54 10° S
SL-8 Rocket 4.2 15:35:35 65° SSW 15:35:35 65° SSW 15:40:59 10° S
ACS3 Solar Sail 3.9 15:32:00 10° ENE 15:36:35 22° ESE 15:41:11 10° SSE
Resurs 1-4 Rocket 2.7 15:38:14 53° SSE 15:38:14 53° SSE 15:42:30 10° S
SL-16 R/B 4.0 15:33:53 10° S 15:38:46 28° ESE 15:42:43 14° ENE
Cosmos 1821 Rocket 4.2 15:41:19 64° E 15:41:23 64° E 15:47:43 10° SSE
Cosmos 2219 3.6 15:42:46 59° ESE 15:42:46 59° ESE 15:47:41 10° SSE
H-2A R/B 4.1 15:41:21 17° ENE 15:43:43 24° ESE 15:47:49 10° SSE
USA 229 DEB 3.8 15:39:00 10° SSW 15:43:46 54° SSW 15:43:46 54° SSW
USA 229 3.8 15:39:15 10° SSW 15:44:02 55° SSW 15:44:02 55° SSW
Cosmos 2366 rocket 4.2 15:48:47 62° SW 15:48:47 62° SW 15:54:19 10° S
BREEZE-M DEB (TANK) 3.9 15:54:51 31° SSW 15:56:58 60° SE 16:08:58 10° ENE
GEOS 3 Rocket 3.9 15:53:09 10° SSE 15:57:23 62° SSE 15:57:23 62° SSE
Cosmos 724 4.3 15:59:24 74° S 15:59:24 74° S 16:04:41 10° SSE
Cosmos 2297 Rocket 4.5 15:59:31 12° SW 15:59:31 12° SW 16:01:42 10° SSW
ATLAS 3B R/B 2.6 15:56:25 10° SW 16:01:54 64° WSW 16:01:54 64° WSW
Cosmos 494 Rocket 4.2 16:06:49 68° S 16:06:49 68° S 16:11:24 10° SSE
Cosmos 1680 Rocket 4.1 16:08:54 47° SW 16:08:54 47° SW 16:13:13 10° S
Cosmos 2218 Rocket 4.4 16:10:43 47° WSW 16:10:43 47° WSW 16:16:31 10° S
Cosmos 1607 3.9 16:13:07 70° W 16:13:34 73° WSW 16:20:01 10° SSE
Cosmos 1707 Rocket 4.5 16:09:25 10° S 16:12:25 43° S 16:12:25 43° S
ALOS 3.0 16:16:01 44° SSW 16:16:01 44° SSW 16:19:14 10° SSW
Cosmos 2237 Rocket 4.0 16:12:37 10° SW 16:14:30 19° SW 16:14:30 19° SW
Cosmos 1420 Rocket 4.0 16:15:44 10° SSW 16:20:27 71° SW 16:20:27 71° SW
Cosmos 1048 Rocket 4.1 16:24:42 66° NNE 16:25:15 72° ENE 16:30:38 10° SSE
Meteor 1-22 Rocket 4.3 16:29:30 63° WNW 16:30:09 68° W 16:36:10 10° S
Cosmos 1900 4.1 16:37:55 76° W 16:38:04 78° WSW 16:42:56 10° SSE
ADEOS II 2.5 16:38:54 46° WSW 16:38:54 46° WSW 16:43:20 10° SSW
SL-08 R/B 4.4 16:36:20 48° N 16:38:16 89° W 16:44:40 10° S
Envisat 3.8 16:40:24 36° WSW 16:40:24 36° WSW 16:44:03 10° SSW
Meteor 2-14 Rocket 4.3 16:35:21 10° S 16:41:35 77° W 16:43:41 43° N
OAO 2 Rocket 3.7 16:41:37 48° NNE 16:41:44 48° NNE 16:46:43 10° E
Cosmos 2227 Rocket 4.4 16:47:02 11° WSW 16:47:53 11° SW 16:49:38 10° SW
CZ-2C R/B 4.2 16:45:16 10° SSW 16:48:49 19° WSW 16:48:49 19° WSW
METEOR-M 4.0 16:49:26 48° NNW 16:50:49 68° WNW 16:56:11 10° SSW
H-2A R/B 3.7 16:54:02 20° SW 16:54:02 20° SW 16:55:46 10° SW
Cosmos 1703 Rocket 3.8 16:48:52 10° S 16:53:13 67° E 16:55:05 32° NNE
Cosmos 1867 3.5 16:52:32 52° NW 16:53:51 78° WSW 16:59:17 10° SSE
Cosmos 381 Rocket 4.5 16:54:00 42° NW 16:56:12 68° WSW 17:02:34 10° S
CZ-2C R/B 3.6 16:51:48 10° NE 16:56:31 42° ESE 17:01:10 10° S
Cosmos 1953 2.9 16:57:34 39° SW 16:57:34 39° SW 17:00:25 10° S
ARGOS 3.8 16:52:10 10° NNE 16:57:26 56° ESE 17:02:43 10° S
ADEOS Rocket 3.5 16:53:08 22° N 16:58:23 65° WNW 17:05:48 10° SSW
ARIANE 6 FM1 Upper Stage 4.3 16:58:50 23° WSW 16:59:18 23° SW 17:02:55 10° S
Cosmos 2227 4.1 16:59:25 42° NNW 17:01:23 78° WSW 17:07:03 10° SSE
Meteor 2-8 Rocket 4.3 17:00:20 32° NNW 17:03:19 80° W 17:09:31 10° S
Cosmos 1844 3.6 17:02:51 35° NNW 17:05:19 85° ENE 17:10:58 10° SSE
Delta 2 Rocket 3.2 17:05:31 47° SSW 17:05:50 49° S 17:08:50 10° E
Meteor 1-12 Rocket 4.2 17:05:30 30° NNW 17:08:31 79° W 17:14:20 10° S
Tiangong 0.0 17:07:42 12° SW 17:10:13 27° SSE 17:13:05 10° ESE
Meteor 1-16 Rocket 4.1 17:09:58 33° NNW 17:12:29 69° W 17:17:55 10° S
Cosmos 2056 Rocket 3.9 17:07:26 10° SSW 17:12:29 44° WNW 17:14:09 34° NW
CZ-2D R/B 4.1 17:14:39 13° WSW 17:14:39 13° WSW 17:15:49 10° WSW
Cosmos 1727 Rocket 4.5 17:09:25 10° SSW 17:15:07 39° W 17:17:14 30° NW
Meteor 1-24 Rocket 4.0 17:09:46 10° SSW 17:15:41 55° W 17:19:19 23° NNW
Cosmos 2263 Rocket 4.3 17:14:25 11° WSW 17:15:58 12° SW 17:18:15 10° SSW
Cosmos 1933 Rocket 4.0 17:17:06 38° WNW 17:18:05 45° W 17:22:23 10° S
Cosmos 1844 Rocket 2.7 17:15:43 32° NW 17:18:21 65° WSW 17:24:02 10° SSE
ACS3 Solar Sail 2.0 17:15:21 23° NNW 17:19:03 50° W 17:25:08 10° SSW
CZ-4C R/B 3.4 17:13:51 27° NW 17:19:05 59° WSW 17:26:51 10° SSE
Cosmos 1605 Rocket 4.0 17:17:03 14° N 17:22:37 86° E 17:29:04 10° S
H-2A R/B 2.7 17:21:50 30° WNW 17:22:46 32° W 17:27:25 10° SW
SL-16 R/B 2.9 17:17:45 10° SW 17:22:47 33° WNW 17:24:26 28° NW
Cosmos 2084 Rocket 4.3 17:20:46 21° N 17:23:07 43° ENE 17:27:05 10° SE
ATLAS CENTAUR R/B 1.5 17:24:00 31° SW 17:24:00 31° SW 17:26:39 10° S
SL-08 RB Rocket 4.2 17:21:21 10° NNE 17:25:42 60° ESE 17:30:06 10° S
Cosmos 614 Rocket 3.9 17:24:43 27° NNW 17:27:27 69° WSW 17:32:34 10° SSE
Cosmos 1939 Rocket 4.5 17:26:44 10° NE 17:30:06 33° ESE 17:33:28 10° S
Spot 2 4.3 17:28:16 10° S 17:32:36 50° WSW 17:34:40 26° NW
H-2A R/B 3.5 17:33:15 10° SSW 17:36:17 24° WSW 17:37:01 22° W
USA 308 2.6 17:33:27 10° SW 17:37:11 59° NW 17:41:15 10° NNE
Cosmos 1869 Rocket 4.3 17:39:52 24° NW 17:41:54 36° W 17:46:04 10° SSW
Cosmos 1110 Rocket 4.0 17:39:53 10° SSW 17:45:04 64° WNW 17:50:14 10° N
MOZ.5/SAFIR/RUBIN 5/SL-8 4.5 17:42:14 10° S 17:46:28 35° WSW 17:49:13 19° NW
Cosmos 2123 Rocket 4.5 17:44:00 10° SSW 17:49:50 40° W 17:55:36 10° NNW
ISS -3.7 17:53:00 19° NW 17:55:18 76° NE 17:58:43 10° SE
Cosmos 1340 Rocket 3.0 17:52:58 10° N 17:56:37 65° E 18:00:20 10° SSE
Cosmos 2242 Rocket 3.7 17:55:20 10° S 17:59:48 78° E 18:04:11 10° N
Centaur AC-119 4.1 18:02:16 13° NW 18:08:24 39° N 18:13:19 10° ENE
SL-4 R/B 4.1 18:05:54 10° SSW 18:09:17 27° SE 18:12:29 10° E
Cosmos 921 Rocket 3.1 18:06:08 10° N 18:10:25 82° ENE 18:14:41 10° SSE
Cosmos 1943 3.7 18:05:36 10° SW 18:10:48 38° WNW 18:15:58 10° N
SJ-11-01 4.3 18:07:55 10° NNE 18:12:37 88° W 18:17:22 10° SSW
IRS-1D 3.6 18:09:51 10° NNE 18:14:54 85° ESE 18:20:08 10° SSW
Cosmos 1733 Rocket 3.6 18:11:26 10° NNW 18:15:36 41° W 18:19:50 10° S
Cosmos 1603 3.7 18:11:17 10° SSW 18:17:01 77° WNW 18:22:44 10° NNE
Cosmos 1452 Rocket 4.0 18:16:39 10° SW 18:21:31 38° W 18:26:21 10° NNW
Cosmos 1140 Rocket 4.5 18:20:29 10° N 18:25:25 49° ENE 18:30:26 10° SSE
OAO 2 Rocket 3.5 18:21:03 10° W 18:26:17 77° S 18:31:25 10° ESE
OAO 3 Rocket 3.2 18:21:37 10° WNW 18:26:19 81° NNE 18:31:08 10° ESE
